#timestamp,LO_Frequency,Hit,StdDev 
1601042415.2,286047006.2,Y
1601042435.0,286047003.5,P
1601042435.9,286047003.5,P
1601042455.7,286047000.0,N
1601042475.6,286047000.2,N
1601042495.4,286047000.9,N
1601042515.3,286046998.9,N
1601042535.2,286046998.3,N
1601042555.0,286046998.6,N
1601042555.9,286046998.6,N
1601042575.8,286046998.9,N
1601042595.6,286046998.7,N
1601042615.4,286046999.5,N
1601042635.3,286046996.5,N
1601042655.1,286046999.3,N
1601042675.8,286046998.9,N
1601042695.7,286047000.4,N
1601042715.5,286047002.6,N
1601042735.4,286047000.1,N
1601042755.2,286047000.9,N
1601042775.0,286047000.1,N
1601042775.9,286047000.1,N
1601042795.8,286047001.7,N
1601042815.6,286047005.8,Y
1601042835.4,286047002.9,P
1601042855.3,286047001.3,N
1601042875.1,286046999.7,N
1601042895.9,286047002.1,N
1601042915.7,286046999.9,N
1601042935.5,286047001.5,N
1601042955.4,286047001.9,N
1601042975.2,286047001.0,N
1601042995.1,286047001.2,N
1601042996.0,286047001.2,N
1601043015.8,286046998.1,N
1601043035.6,286047000.8,N
1601043055.5,286047000.4,N
1601043075.3,286046998.4,N
1601043095.1,286046998.2,N
1601043115.9,286046998.1,N
1601043135.7,286046998.1,N
1601043155.5,286047000.7,N
1601043175.4,286047000.5,N
1601043195.2,286047004.1,N
1601043215.1,286047002.3,N
1601043216.0,286047002.3,N
1601043235.8,286047003.8,N
1601043255.6,286047002.5,N
1601043275.5,286047000.3,N
1601043295.3,286047000.4,N
1601043315.1,286047000.4,N
1601043335.9,286047000.6,N
1601043355.7,286047000.0,N
1601043375.6,286047000.3,N
1601043395.4,286047000.9,N
1601043415.2,286047000.3,N
1601043435.1,286047000.4,N
1601043436.0,286047000.4,N
1601043455.8,286047000.7,N
1601043475.6,286046998.1,N
1601043495.5,286047000.0,N
1601043515.3,286047001.1,N
1601043535.2,286047000.8,N
1601043555.9,286047000.3,N
1601043575.7,286046999.9,N
1601043595.6,286047000.3,N
1601043615.4,286047000.5,N
1601043635.2,286046998.5,N
1601043655.1,286046998.1,N
1601043656.0,286046998.1,N
1601043675.8,286047000.5,N
1601043695.7,286047000.3,N
1601043715.5,286046999.8,N
1601043735.3,286046999.7,N
1601043755.2,286046999.8,N
1601043775.0,286047002.2,N
1601043775.9,286047002.2,N
1601043795.8,286047001.0,N
1601043815.6,286047001.7,N
1601043835.4,286046999.7,N
1601043855.3,286047000.6,N
1601043875.1,286047001.0,N
1601043895.8,286047000.1,N
1601043915.7,286047002.2,N
1601043935.5,286047002.7,N
1601043955.4,286047002.3,N
1601043975.2,286047000.4,N
1601043995.0,286047001.6,N
1601043995.9,286047001.6,N
1601044015.8,286047002.3,N
1601044035.6,286047004.2,Y
1601044055.5,286047001.8,P
1601044075.3,286047003.7,P
1601044095.1,286047004.0,P
1601044115.9,286047003.1,N
1601044135.7,286047001.8,N
1601044155.5,286046999.7,N
1601044175.4,286047000.6,N
1601044195.2,286047002.4,N
1601044215.0,286047002.6,N
1601044215.9,286047002.6,N
1601044235.8,286047003.2,N
1601044255.6,286047006.0,Y
1601044275.5,286047002.7,P
1601044295.3,286047000.2,N
1601044315.1,286046999.9,N
1601044335.9,286046998.4,N
1601044355.7,286047000.7,N
1601044375.5,286047000.7,N
1601044395.4,286047000.0,N
1601044415.2,286047002.3,N
1601044435.1,286047000.1,N
1601044436.0,286047000.1,N
1601044455.8,286047002.2,N
1601044475.6,286047000.1,N
1601044495.5,286047001.7,N
1601044515.3,286047002.1,N
1601044535.1,286047002.4,N
1601044555.9,286046999.7,N
1601044575.7,286047000.0,N
1601044595.6,286047011.9,Y
1601044615.4,286047000.8,P
1601044635.2,286046998.9,P
1601044655.1,286046998.8,N
1601044656.0,286046998.8,N
1601044675.8,286046999.3,N
1601044695.6,286046996.7,Y
1601044715.5,286046996.6,P
1601044735.3,286046998.8,N
1601044755.2,286046996.9,N
1601044775.9,286046998.8,N
1601044795.7,286046998.4,N
1601044815.6,286047000.6,N
1601044835.4,286047000.5,N
1601044855.2,286047001.9,N
1601044875.1,286047001.7,N
1601044876.0,286047001.7,N
1601044895.8,286047002.0,N
1601044915.7,286047002.4,N
1601044935.5,286047002.4,N
1601044955.3,286047001.7,N
1601044975.2,286047001.7,N
1601044995.0,286046999.7,N
1601044995.9,286046999.7,N
1601045015.7,286046998.5,N
1601045035.6,286047000.9,N
1601045055.4,286046998.9,N
1601045075.3,286047001.2,N
1601045095.1,286047011.9,Y
1601045115.8,286047000.8,P
1601045135.7,286046998.1,P
1601045155.5,286047000.1,N
1601045175.4,286046999.8,N
1601045195.2,286047003.3,Y
1601045215.0,286047008.2,P
1601045215.9,286047008.2,N
1601045235.8,286047009.4,N
1601045255.6,286047009.7,N
1601045275.4,286047006.7,N
1601045295.3,286047007.1,N
1601045315.1,286047007.2,N
1601045335.9,286047005.2,N
1601045355.7,286047004.9,N
1601045375.5,286047002.9,N
1601045395.4,286047004.3,N
1601045415.2,286047001.4,N
1601045435.0,286047001.3,N
1601045435.9,286047001.3,N
1601045455.8,286047003.6,N
1601045475.6,286047005.7,N
1601045495.5,286047003.3,N
1601045515.3,286047004.3,N
1601045535.1,286047004.2,N
1601045555.9,286047004.4,N
1601045575.7,286047004.4,N
1601045595.6,286047003.6,N
1601045615.4,286047006.0,N
1601045635.2,286047004.4,N
1601045655.1,286047005.9,N
1601045656.0,286047005.9,N
1601045675.8,286047003.0,N
1601045695.6,286047001.8,N
1601045715.5,286047002.5,N
1601045735.3,286047002.0,N
1601045755.2,286047001.8,N
1601045775.9,286047002.2,N
1601045795.7,286047002.0,N
1601045815.6,286047003.7,N
1601045835.4,286047003.8,N
1601045855.2,286047004.0,N
1601045875.1,286047001.9,N
1601045876.0,286047001.9,N
1601045895.8,286047001.7,N
1601045915.7,286047002.4,N
1601045935.5,286047001.4,N
1601045955.3,286047002.9,N
1601045975.2,286047005.8,Y
1601045995.0,286046999.9,P
1601045995.9,286046999.9,N
